Delta, CO

2:32 AM MDT on October 17, 2019 (GMT -0600)
Delta

Weather History for KAJZ - September, 2019

Change the Weather History Date:

Friday, September 20, 2019

  Actual Average (WUND) Record (WUND)
Temperature  
Mean Temperature 68 °F -  
Max Temperature 81 °F - - (-1)
Min Temperature 53 °F - - (-1)
Cooling Degree Days 3    
Growing Degree Days 18 (Base 50)    
Moisture  
Dew Point 28 °F    
Average Humidity 24    
Maximum Humidity 45    
Minimum Humidity 9    
Precipitation  
Precipitation 0.00 in - - ()
Sea Level Pressure  
Sea Level Pressure 29.92 in    
Wind  
Wind Speed 8 mph ()    
Max Wind Speed 31 mph    
Max Gust Speed 41 mph    
Visibility 10.0 miles    
Events      
Averages and records for this station are not official NWS values.
T = Trace of Precipitation, MM = Missing Value Source: Averaged Metar Reports

Daily Weather History Graph

Daily Weather History Graph

Search for Another Location

Airport or City:

Astronomy

Sep. 20, 2019 Rise Set
Actual Time 6:58 AM MDT 7:12 PM MDT
Civil Twilight 6:31 AM MDT 7:39 PM MDT
Nautical Twilight 6:00 AM MDT 8:10 PM MDT
Astronomical Twilight 5:28 AM MDT 8:42 PM MDT
Moon 11:08 PM MDT (9/20) 1:02 PM MDT (9/20)
Length of Visible Light 13h 07m
Length of Day
12h 14m
Waning Gibbous, 64% of the Moon is Illuminated
Sep 20
Waning Gibbous
Sep 21
Last Quarter
Sep 28
New
Oct 5
First Quarter
Oct 13
Full

Hourly Weather History & Observations

Time (MDT) Temp. Dew Point Humidity Pressure Visibility Wind Dir Wind Speed Gust Speed Precip Events Conditions
12:15 AM 70.7 °F 39.4 °F 32% 29.90 in 10.0 mi East 8.1 mph - N/A   Overcast
12:35 AM 70.2 °F 39.2 °F 32% 29.90 in 10.0 mi East 3.5 mph - N/A   Overcast
12:55 AM 68.5 °F 39.0 °F 34% 29.90 in 10.0 mi East 4.6 mph - N/A   Mostly Cloudy
1:15 AM 69.3 °F 38.5 °F 32% 29.91 in 10.0 mi ESE 4.6 mph - N/A   Mostly Cloudy
1:35 AM 70.3 °F 38.3 °F 31% 29.91 in 10.0 mi ESE 3.5 mph - N/A   Mostly Cloudy
1:55 AM 66.2 °F 39.4 °F 37% 29.91 in 10.0 mi East 3.5 mph - N/A   Scattered Clouds
2:15 AM 65.7 °F 39.2 °F 38% 29.91 in 10.0 mi ENE 4.6 mph - N/A   Scattered Clouds
2:35 AM 65.1 °F 39.6 °F 39% 29.91 in 10.0 mi East 5.8 mph - N/A   Scattered Clouds
2:55 AM 67.1 °F 37.9 °F 34% 29.90 in 10.0 mi Calm Calm - N/A   Scattered Clouds
3:15 AM 65.1 °F 39.2 °F 39% 29.90 in 10.0 mi Calm Calm - N/A   Clear
3:35 AM 63.9 °F 39.6 °F 41% 29.91 in 10.0 mi SE 3.5 mph - N/A   Clear
3:55 AM 62.6 °F 40.1 °F 44% 29.91 in 10.0 mi ENE 3.5 mph - N/A   Clear
4:15 AM 62.1 °F 40.5 °F 45% 29.91 in 10.0 mi ENE 6.9 mph - N/A   Clear
4:35 AM 63.5 °F 39.9 °F 42% 29.91 in 10.0 mi ENE 5.8 mph - N/A   Clear
4:55 AM 63.0 °F 39.7 °F 42% 29.91 in 10.0 mi ENE 4.6 mph - N/A   Clear
5:15 AM 61.9 °F 40.1 °F 45% 29.91 in 10.0 mi Calm Calm - N/A   Clear
5:35 AM 62.1 °F 39.4 °F 43% 29.91 in 10.0 mi NNE 3.5 mph - N/A   Clear
5:55 AM 64.0 °F 38.3 °F 39% 29.91 in 10.0 mi NE 3.5 mph - N/A   Clear
6:15 AM 64.8 °F 37.8 °F 37% 29.91 in 10.0 mi NE 3.5 mph - N/A   Clear
6:35 AM 66.2 °F 36.3 °F 33% 29.91 in 10.0 mi Calm Calm - N/A   Clear
6:55 AM 62.6 °F 38.8 °F 42% 29.91 in 10.0 mi ENE 4.6 mph - N/A   Clear
7:15 AM 61.9 °F 37.0 °F 40% 29.92 in 10.0 mi NE 8.1 mph - N/A   Clear
7:35 AM 64.6 °F 36.9 °F 36% 29.92 in 10.0 mi NE 5.8 mph - N/A   Clear
7:55 AM 66.2 °F 37.4 °F 35% 29.92 in 10.0 mi NNE 5.8 mph - N/A   Scattered Clouds
8:15 AM 70.0 °F 36.1 °F 29% 29.92 in 10.0 mi Calm Calm - N/A   Scattered Clouds
8:35 AM 72.0 °F 36.0 °F 27% 29.92 in 10.0 mi ENE 6.9 mph - N/A   Mostly Cloudy
8:55 AM 72.1 °F 36.0 °F 27% 29.92 in 10.0 mi Calm Calm - N/A   Mostly Cloudy
9:15 AM 72.7 °F 35.4 °F 26% 29.92 in 10.0 mi Calm Calm - N/A   Mostly Cloudy
9:35 AM 74.1 °F 35.1 °F 24% 29.92 in 10.0 mi SSW 8.1 mph 17.3 mph N/A   Scattered Clouds
9:55 AM 74.1 °F 36.9 °F 26% 29.92 in 10.0 mi SSW 5.8 mph - N/A   Scattered Clouds
10:15 AM 75.0 °F 35.8 °F 24% 29.92 in 10.0 mi SSW 4.6 mph - N/A   Clear
10:35 AM 77.4 °F 35.2 °F 22% 29.92 in 10.0 mi SSW 12.7 mph 25.3 mph N/A   Scattered Clouds
10:55 AM 77.9 °F 33.4 °F 20% 29.92 in 10.0 mi SSW 15.0 mph 19.6 mph N/A   Scattered Clouds
11:15 AM 75.9 °F 34.9 °F 22% 29.92 in 10.0 mi SSW 10.4 mph 19.6 mph N/A   Mostly Cloudy
11:35 AM 76.6 °F 33.6 °F 21% 29.92 in 10.0 mi SW 11.5 mph - N/A   Mostly Cloudy
11:55 AM 79.0 °F 32.0 °F 18% 29.92 in 10.0 mi SW 12.7 mph 23.0 mph N/A   Scattered Clouds
12:15 PM 81.1 °F 27.7 °F 14% 29.91 in 10.0 mi SSW 16.1 mph 25.3 mph N/A   Scattered Clouds
12:35 PM 80.8 °F 26.6 °F 14% 29.91 in 10.0 mi South 18.4 mph 33.4 mph N/A   Scattered Clouds
1:15 PM 81.7 °F 24.3 °F 12% 29.90 in 10.0 mi SSW 28.8 mph 34.5 mph N/A   Scattered Clouds
1:35 PM 81.1 °F 25.0 °F 13% 29.90 in 10.0 mi SW 27.6 mph 38.0 mph N/A   Clear
1:55 PM 81.0 °F 23.7 °F 12% 29.89 in 10.0 mi SW 23.0 mph 35.7 mph N/A   Clear
2:15 PM 81.7 °F 22.3 °F 11% 29.89 in 10.0 mi SW 24.2 mph 32.2 mph N/A   Clear
2:35 PM 81.0 °F 21.4 °F 11% 29.88 in 10.0 mi SW 24.2 mph 38.0 mph N/A   Clear
2:55 PM 81.1 °F 19.6 °F 10% 29.88 in 10.0 mi SW 31.1 mph 41.4 mph N/A   Clear
3:15 PM 81.0 °F 21.0 °F 11% 29.88 in 10.0 mi SW 27.6 mph 35.7 mph N/A   Clear
3:35 PM 80.8 °F 19.9 °F 10% 29.88 in 10.0 mi SW 25.3 mph 41.4 mph N/A   Clear
3:55 PM 80.8 °F 20.8 °F 11% 29.88 in 10.0 mi SW 27.6 mph 39.1 mph N/A   Clear
4:15 PM 80.4 °F 20.1 °F 11% 29.89 in 10.0 mi WSW 24.2 mph 36.8 mph N/A   Clear
4:55 PM 79.3 °F 19.4 °F 11% 29.90 in 10.0 mi SW 20.7 mph 29.9 mph N/A   Clear
5:15 PM 79.3 °F 19.6 °F 11% 29.90 in 10.0 mi SSW 18.4 mph 27.6 mph N/A   Clear
5:35 PM 78.8 °F 16.3 °F 10% 29.90 in 10.0 mi SW 26.5 mph 33.4 mph N/A   Clear
5:55 PM 77.7 °F 13.5 °F 9% 29.91 in 10.0 mi SW 25.3 mph 32.2 mph N/A   Clear
6:15 PM 76.8 °F 14.7 °F 10% 29.92 in 10.0 mi SW 17.3 mph 33.4 mph N/A   Clear
6:35 PM 76.1 °F 13.1 °F 9% 29.92 in 10.0 mi SW 13.8 mph 19.6 mph N/A   Clear
6:55 PM 74.3 °F 12.9 °F 10% 29.92 in 10.0 mi SW 15.0 mph - N/A   Clear
7:15 PM 72.7 °F 12.7 °F 10% 29.92 in 10.0 mi WSW 10.4 mph 17.3 mph N/A   Clear
7:35 PM 72.0 °F 13.1 °F 10% 29.93 in 10.0 mi West 8.1 mph - N/A   Clear
7:55 PM 71.1 °F 13.6 °F 11% 29.94 in 10.0 mi WSW 8.1 mph - N/A   Clear
8:15 PM 70.3 °F 10.0 °F 10% 29.94 in 10.0 mi West 9.2 mph - N/A   Clear
8:35 PM 70.0 °F 9.3 °F 10% 29.95 in 10.0 mi WNW 8.1 mph - N/A   Clear
8:55 PM 69.3 °F 8.1 °F 9% 29.96 in 10.0 mi West 4.6 mph - N/A   Scattered Clouds
9:15 PM 68.4 °F 7.2 °F 9% 29.96 in 10.0 mi SSW 3.5 mph - N/A   Scattered Clouds
9:35 PM 64.8 °F 12.6 °F 13% 29.98 in 10.0 mi SSW 3.5 mph - N/A   Clear
9:55 PM 63.1 °F 12.9 °F 14% 29.98 in 10.0 mi East 3.5 mph - N/A   Clear
10:15 PM 59.9 °F 23.0 °F 24% 29.99 in 10.0 mi East 4.6 mph - N/A   Clear
10:35 PM 58.3 °F 23.0 °F 26% 29.99 in 10.0 mi East 4.6 mph - N/A   Clear
10:55 PM 57.4 °F 24.3 °F 28% 30.00 in 10.0 mi Calm Calm - N/A   Clear
11:15 PM 55.4 °F 27.1 °F 34% 30.01 in 10.0 mi Calm Calm - N/A   Clear
11:35 PM 56.5 °F 23.5 °F 28% 30.02 in 10.0 mi SW 3.5 mph - N/A   Clear
11:55 PM 53.4 °F 26.4 °F 35% 30.02 in 10.0 mi Calm Calm - N/A   Clear